Simultaneous Nadir Overpasses (SNOs) Predictions

Prediction of SNOs between FY3D and AQUA Satellite Orbit:

Table of predicted SNOs for the next 14.0 days since TLE Epoch: 10/9/2021
Index Date (FY3D) Time (FY3D) Lat,Lon (FY3D) SZA (FY3D ) Date (AQUA) Time (AQUA) Lat,Lon (AQUA) SZA (AQUA ) Distance(km) Time Diff (sec)
1 10/11/2021 12:10:44 67.62, 0.71 74.87 10/11/2021 12:11:12 67.63, 0.68 74.88 1.67 28
2 10/11/2021 13:00:19 -63.94, 171.92 108.54 10/11/2021 12:59:32 -63.93, 171.94 108.56 0.90 47
3 10/14/2021 04:27:24 68.83, 115.09 77.03 10/14/2021 04:28:02 68.83, 115.12 77.03 1.31 38
4 10/14/2021 05:16:42 -64.24, -72.41 107.25 10/14/2021 05:16:06 -64.25, -72.45 107.26 2.01 36
5 10/16/2021 20:43:42 68.92,-129.08 78.11 10/16/2021 20:44:31 68.93,-129.12 78.12 1.60 49
6 10/16/2021 21:33:20 -65.42, 42.38 105.17 10/16/2021 21:32:54 -65.43, 42.37 105.17 0.83 26
7 10/19/2021 13:00:15 69.76, -14.33 79.89 10/19/2021 13:01:14 69.76, -14.33 79.89 0.09 59
8 10/19/2021 13:49:54 -66.33, 157.38 103.35 10/19/2021 13:49:38 -66.33, 157.37 103.36 0.33 16
9 10/22/2021 05:16:45 70.43, 100.59 81.49 10/22/2021 05:17:54 70.42, 100.61 81.49 0.91 69



Historial Predications of SNOs between FY3D and AQUA
